Regional Weather Roundup
Issued by NWS

Home | Current Version | Previous Version | Graphics & Text | Print | Product List | Glossary On
Versions: 1 2 3 4 5 6 7 8 9 10 11 12 13 14 15 16 17 18 19 20 21 22 23 24 25 26 27 28 29 30 31 32 33 34 35 36 37 38 39 40 41 42 43 44 45 46 47 48 49 50
775
ASUS43 KBIS 221302
RWRND

NORTH DAKOTA REGIONAL WEATHER ROUNDUP
NATIONAL WEATHER SERVICE BISMARCK ND
800 AM CDT THU JUN 22 2017

NOTE: "FAIR" INDICATES FEW OR NO CLOUDS BELOW 12,000 FEET WITH NO
SIGNIFICANT WEATHER AND/OR OBSTRUCTIONS TO VISIBILITY.


NDZ001>003-009>011-017-221400-
NORTHWEST NORTH DAKOTA

CITY           SKY/WX    TMP DP  RH WIND       PRES   REMARKS
WILLISTON      SUNNY     56  46  69 W14       29.86R
MINOT          MOSUNNY   62  45  53 W16       29.75S
MINOT AFB      SUNNY     60  46  59 W16G24    29.74R
$$

NDZ018>021-031>035-040>046-221400-
SOUTHWEST NORTH DAKOTA

CITY           SKY/WX    TMP DP  RH WIND       PRES   REMARKS
BISMARCK       CLOUDY    61  46  57 NW7       29.84R
DICKINSON      CLOUDY    54  44  69 W7        29.86R
GARRISON         N/A     58  47  66 W14       29.78F
HETTINGER ARPT CLOUDY    57  41  55 N9        29.90R
$$

NDZ004>008-012>016-024-026-027-054-221400-
NORTHEAST NORTH DAKOTA

CITY           SKY/WX    TMP DP  RH WIND       PRES   REMARKS
GRAND FORKS    CLOUDY    60  49  66 W8        29.71S
GRND FRKS AFB  CLOUDY    60  47  61 W7        29.72F
DEVILS LAKE    CLOUDY    61  48  62 W15       29.74F
$$

NDZ022-023-025-028>030-036>039-047>053-221400-
SOUTHEAST NORTH DAKOTA

CITY           SKY/WX    TMP DP  RH WIND       PRES   REMARKS
FARGO          CLOUDY    59  52  77 SW5       29.73S
JAMESTOWN      CLOUDY    62  46  55 NW9       29.79R
$$





USA.gov is the U.S. government's official web portal to all federal, state and local government web resources and services.